Peoria, IL

12:40 PM CST on January 17, 2017 (GMT -0600)
Greater Peoria Regional

Weather History for KPIA - October, 2012

Change the Weather History Date:

Wednesday, October 17, 2012

  Actual Average Record
Temperature  
Mean Temperature 56 °F 54 °F  
Max Temperature 63 °F 64 °F 87 °F (2016)
Min Temperature 48 °F 43 °F 26 °F (1948)
Degree Days  
Heating Degree Days 9 12  
Month to date heating degree days 208 160  
Since 1 July heating degree days 312 250  
Cooling Degree Days 0 0  
Month to date cooling degree days 0 12  
Year to date cooling degree days 1368 1036  
Growing Degree Days 8 (Base 50)    
Moisture  
Dew Point 54 °F    
Average Humidity 77    
Maximum Humidity 97    
Minimum Humidity 56    
Precipitation  
Precipitation 0.95 in 0.09 in 2.13 in (1946)
Month to date precipitation 3.08 1.49  
Year to date precipitation 23.28 29.59  
Snow  
Snow 0.00 in 0.00 in 0.00 in ()
Month to date snowfall 0.0 0.0  
Since 1 July snowfall 0.0 0.0  
Since 1 September snowfall 0.0 0.0  
Snow Depth 0.00 in    
Sea Level Pressure  
Sea Level Pressure 29.44 in    
Wind  
Wind Speed 12 mph (SSW)    
Max Wind Speed 22 mph    
Max Gust Speed 31 mph    
Visibility 6 miles    
Events Rain , Thunderstorm    
T = Trace of Precipitation, MM = Missing Value Source: NWS Daily Summary

Daily Weather History Graph

Daily Weather History Graph

Search for Another Location

Airport or City:

Trip Planner

Search our weather history database for the weather conditions in past years. The results will help you decide how hot, cold, wet, or windy it might be!

Date:

Astronomy

Oct. 17, 2012 Rise Set
Actual Time 7:12 AM CDT 6:14 PM CDT
Civil Twilight 6:44 AM CDT 6:42 PM CDT
Nautical Twilight 6:13 AM CDT 7:14 PM CDT
Astronomical Twilight 5:41 AM CDT 7:45 PM CDT
Moon 9:47 AM CDT 7:49 PM CDT
Length of Visible Light 11h 57m
Length of Day
11h 02m
Waxing Crescent, 7% of the Moon is Illuminated
Oct 17
Waxing Crescent
Oct 21
First Quarter
Oct 29
Full
Nov 6
Last Quarter
Nov 13
New

Hourly Weather History & Observations

Time (CDT) Temp. Dew Point Humidity Pressure Visibility Wind Dir Wind Speed Gust Speed Precip Events Conditions
12:54 AM 63.0 °F 48.0 °F 58% 29.57 in 10.0 mi SSW 16.1 mph 23.0 mph N/A   Mostly Cloudy
1:54 AM 62.1 °F 46.9 °F 58% 29.57 in 10.0 mi SSW 16.1 mph - N/A   Clear
2:54 AM 60.1 °F 46.9 °F 62% 29.55 in 10.0 mi South 12.7 mph - N/A   Clear
3:54 AM 59.0 °F 48.0 °F 67% 29.55 in 10.0 mi South 11.5 mph - N/A   Clear
4:54 AM 57.0 °F 48.0 °F 72% 29.54 in 10.0 mi South 9.2 mph - N/A   Clear
5:54 AM 55.9 °F 48.9 °F 77% 29.54 in 10.0 mi South 10.4 mph - N/A   Clear
6:54 AM 55.0 °F 48.0 °F 77% 29.53 in 10.0 mi South 9.2 mph - N/A   Clear
7:54 AM 55.0 °F 48.9 °F 80% 29.53 in 10.0 mi South 10.4 mph - N/A   Clear
8:54 AM 57.9 °F 50.0 °F 75% 29.52 in 10.0 mi South 13.8 mph - N/A   Overcast
9:54 AM 61.0 °F 51.1 °F 70% 29.50 in 10.0 mi South 15.0 mph 23.0 mph N/A   Mostly Cloudy
10:54 AM 62.1 °F 53.1 °F 72% 29.49 in 10.0 mi SSW 15.0 mph 26.5 mph N/A   Clear
11:54 AM 63.0 °F 54.0 °F 72% 29.48 in 10.0 mi South 12.7 mph 21.9 mph N/A   Scattered Clouds
12:01 PM 62.6 °F 53.6 °F 72% 29.49 in 10.0 mi SSW 16.1 mph 21.9 mph N/A   Mostly Cloudy
12:34 PM 62.6 °F 55.4 °F 77% 29.47 in 10.0 mi South 15.0 mph 25.3 mph N/A   Mostly Cloudy
12:54 PM 63.0 °F 55.0 °F 75% 29.46 in 10.0 mi South 13.8 mph 24.2 mph N/A   Overcast
1:11 PM 62.6 °F 55.4 °F 77% 29.46 in 10.0 mi South 13.8 mph - N/A   Overcast
1:50 PM 60.8 °F 55.4 °F 82% 29.44 in 2.5 mi South 10.4 mph - 0.01 in Thunderstorm Unknown
1:54 PM 60.1 °F 55.9 °F 86% 29.44 in 1.5 mi South 11.5 mph - 0.06 in Thunderstorm Overcast
2:05 PM 59.0 °F 57.2 °F 94% 29.44 in 2.0 mi South 10.4 mph - 0.04 in Thunderstorm Overcast
2:10 PM 59.0 °F 57.2 °F 94% 29.43 in 3.0 mi South 10.4 mph - 0.05 in Rain Light Rain
2:16 PM 59.0 °F 57.2 °F 94% 29.43 in 3.0 mi SSE 5.8 mph - 0.07 in Rain Rain
2:19 PM 59.0 °F 57.2 °F 94% 29.43 in 3.0 mi SSE 9.2 mph - 0.07 in Thunderstorm Thunderstorm
2:23 PM 59.0 °F 57.2 °F 94% 29.43 in 3.0 mi SSE 10.4 mph - 0.08 in Thunderstorm Thunderstorm
2:34 PM 59.0 °F 57.2 °F 94% 29.44 in 3.0 mi South 13.8 mph - 0.10 in Thunderstorm Thunderstorm
2:45 PM 59.0 °F 57.2 °F 94% 29.44 in 3.0 mi South 12.7 mph - 0.12 in Rain Light Rain
2:54 PM 59.0 °F 57.0 °F 93% 29.43 in 4.0 mi SSW 12.7 mph - 0.12 in Rain Light Rain
3:54 PM 59.0 °F 57.9 °F 96% 29.40 in 2.5 mi South 10.4 mph - 0.02 in Rain Light Rain
4:43 PM 60.8 °F 57.2 °F 88% 29.38 in 1.5 mi South 9.2 mph - 0.03 in Rain Light Rain
4:54 PM 60.1 °F 59.0 °F 96% 29.36 in 1.5 mi South 6.9 mph - 0.03 in Rain Light Rain
4:56 PM 60.8 °F 59.0 °F 94% 29.37 in 1.2 mi SSW 6.9 mph - 0.01 in Rain Light Rain
5:08 PM 60.8 °F 59.0 °F 94% 29.35 in 2.0 mi South 10.4 mph - 0.02 in Rain Light Rain
5:32 PM 60.8 °F 59.0 °F 94% 29.34 in 4.0 mi South 12.7 mph - 0.02 in Rain Light Rain
5:51 PM 60.8 °F 59.0 °F 94% 29.33 in 2.5 mi South 11.5 mph - 0.03 in Rain Light Rain
5:54 PM 61.0 °F 59.0 °F 93% 29.33 in 2.5 mi SSW 11.5 mph - 0.04 in Rain Light Rain
6:11 PM 60.8 °F 59.0 °F 94% 29.33 in 1.8 mi WSW 9.2 mph - 0.05 in Rain Rain
6:23 PM 60.8 °F 59.0 °F 94% 29.34 in 1.0 mi WSW 11.5 mph 20.7 mph 0.17 in Rain Heavy Rain
6:34 PM 60.8 °F 57.2 °F 88% 29.32 in 2.0 mi West 12.7 mph - 0.34 in Rain Heavy Rain
6:39 PM 60.8 °F 57.2 °F 88% 29.34 in 3.0 mi West 11.5 mph - 0.36 in Rain Rain
6:54 PM 59.0 °F 57.0 °F 93% 29.35 in 4.0 mi West 16.1 mph - 0.41 in Rain Heavy Rain
7:39 PM 57.2 °F 53.6 °F 88% 29.38 in 2.5 mi WNW 12.7 mph 25.3 mph 0.21 in Rain Heavy Rain
7:46 PM 55.4 °F 53.6 °F 94% 29.37 in 4.0 mi NW 13.8 mph 23.0 mph 0.25 in Rain Rain
7:54 PM 54.0 °F 51.1 °F 90% 29.36 in 6.0 mi NW 11.5 mph 27.6 mph 0.27 in Rain Light Rain
8:20 PM 53.6 °F 51.8 °F 94% 29.39 in 10.0 mi WNW 12.7 mph 25.3 mph 0.00 in Rain Light Rain
8:32 PM 53.6 °F 51.8 °F 94% 29.40 in 10.0 mi WNW 11.5 mph 25.3 mph 0.00 in   Overcast
8:54 PM 53.1 °F 50.0 °F 89% 29.41 in 10.0 mi WNW 10.4 mph 20.7 mph 0.00 in   Overcast
9:54 PM 53.1 °F 50.0 °F 89% 29.42 in 10.0 mi WNW 5.8 mph - N/A   Overcast
10:54 PM 53.1 °F 48.0 °F 83% 29.45 in 10.0 mi West 15.0 mph 20.7 mph N/A   Partly Cloudy
11:54 PM 51.1 °F 44.1 °F 77% 29.45 in 10.0 mi West 10.4 mph - N/A   Clear